Location: Alfortville
(48.8058°N, 2.4204°E)
Time: 11:53:09
(UTC+00:00)

NOSS 3-1 (A) - Pass Details

Date: 24 October 2021
Orbit: 721 x 1491 km, 63.4° (Epoch: 22 November)

Event Time Altitude Azimuth Distance (km) Brightness Sun altitude
Rises 19:38:05 0° 239° (WSW) 3,248 6.8 -29.2°
Reaches altitude 10° 19:40:24 10° 244° (WSW) 2,388 6.1 -29.6°
Maximum altitude 19:45:45 53° 322° (NW) 1,097 3.9 -30.4°
Enters shadow 19:47:26 41° 9° (N) 1,325 4.2 -30.7°
